Regional Weather Roundup
Issued by NWS Charleston, SC

Current Version | Previous Version | Text Only | Print | Product List | Glossary Off
Versions: 1 2 3 4 5 6 7 8 9 10 11 12 13 14 15 16 17 18 19 20 21 22 23 24 25 26 27 28 29 30 31 32 33 34 35 36 37 38 39 40 41 42 43 44 45 46 47 48 49 50

000
ASUS42 KCHS 191210
RWRCHS

REGIONAL WEATHER ROUNDUP
NATIONAL WEATHER SERVICE CHARLESTON SC
700 AM EST FRI DEC 19 2014

NOTE: "FAIR" INDICATES FEW OR NO CLOUDS BELOW 12,000 FEET WITH NO
SIGNIFICANT WEATHER AND/OR OBSTRUCTIONS TO VISIBILITY.

NOT ALL STATIONS ARE QUALITY CONTROLLED BY THE NATIONAL
WEATHER SERVICE. USE DATA WITH CAUTION...ESPECIALLY
DEWPOINT OBSERVATIONS.

SCZ027-030-031-034>040-042>050-191300-
...SOUTHEAST SOUTH CAROLINA...

CITY           SKY/WX    TMP DP  RH WIND       PRES   REMARKS
N CHARLESTON   MOCLDY    42  40  92 CALM      30.11R
6HR MIN TEMP:  40; 6HR MAX TEMP:  47;

WATERFRONT PRK   N/A     48 N/A N/A CALM        N/A
MOUNT PLEASANT FAIR      39  39 100 CALM      30.11R
PINOPOLIS        N/A     46  43  87 CALM      30.02R
MONCKS CORNER  FAIR      39  37  93 CALM      30.11R FOG
SUMMERVILLE    NOT AVBL
BEAUFORT MCAS  PTCLDY    43  40  89 CALM      30.12R
6HR MIN TEMP:  41; 6HR MAX TEMP:  49;

BEAUFORT ARPT  FAIR      46  45  93 CALM      30.11R
HILTON HEAD IS PTCLDY    45  43  93 CALM      30.12
WALTERBORO     MOSUNNY   37 N/A N/A CALM      30.12R
ALLENDALE      FAIR      37  37 100 CALM      30.12R FOG

...SOUTHERN MIDLANDS AND PEE DEE...

CITY           SKY/WX    TMP DP  RH WIND       PRES   REMARKS
GEORGETOWN     NOT AVBL
KINGSTREE      NOT AVBL
ORANGEBURG     CLEAR     38  35  89 CALM      30.11R
6HR MIN TEMP:  36; 6HR MAX TEMP:  41;

BARNWELL         N/A     34  34 100 CALM      30.13R
AIKEN          FAIR      37  37 100 W3        30.14R
MANNING        NOT AVBL
COLUMBIA       CLEAR     34  31  88 CALM      30.11R
6HR MIN TEMP:  34; 6HR MAX TEMP:  41;

SUMTER         CLEAR     35  32  90 NE3       30.10R
6HR MIN TEMP:  32; 6HR MAX TEMP:  42;

FLORENCE       PTCLDY    35  31  85 NE5       30.12R WCI  31
6HR MIN TEMP:  35; 6HR MAX TEMP:  39;

MYRTLE BEACH   CLEAR     37  36  93 N5        30.12R WCI  34
N MYRTLE BEACH MOCLDY    35  33  92 N3        30.11R
6HR MIN TEMP:  35; 6HR MAX TEMP:  39;


$$

GAZ063-065-086>088-099>101-113>116-118-119-134>141-150-191300-
...SOUTHEAST GEORGIA...

CITY           SKY/WX    TMP DP  RH WIND       PRES   REMARKS
SAVANNAH ARPT  PTCLDY    42  38  85 W3        30.13R
6HR MIN TEMP:  41; 6HR MAX TEMP:  47;

HUNTER AAF     PTCLDY    43  39  86 W3        30.10R
6HR MIN TEMP:  40; 6HR MAX TEMP:  46;

FORT STEWART   CLOUDY    43  39  88 CALM      30.12R
6HR MIN TEMP:  40; 6HR MAX TEMP:  46;

STATESBORO     CLEAR     36  36 100 CALM      30.13R
SYLVANIA       SUNNY     36  36 100 CALM      30.14R
CLAXTON        FAIR      37  37 100 CALM      30.13R

...CSRA...CENTRAL AND FAR SOUTHEAST GEORGIA...

CITY           SKY/WX    TMP DP  RH WIND       PRES   REMARKS
THOMSON        CLEAR     35  35 100 CALM      30.18R
AUGUSTA-BUSH   CLEAR     33  32  96 CALM      30.13R FOG
6HR MIN TEMP:  31; 6HR MAX TEMP:  40;

AUGUSTA-DANIEL CLEAR     44  36  73 NW7       30.12R
SWAINSBORO     FAIR      36  36 100 CALM      30.13R
VIDALIA        CLEAR     43  36  75 NW3       30.13R
EASTMAN        FAIR      34  34 100 CALM      30.17R FOG
HAZLEHURST     FAIR      42  41  95 CALM      30.13R
ALMA           CLOUDY    47  36  65 N3        30.13R
6HR MIN TEMP:  41; 6HR MAX TEMP:  48;

WAYCROSS       CLOUDY    47  45  90 CALM      30.13R
JESUP          CLOUDY    45  43  93 CALM      30.13R
BAXLEY         MOCLDY    45  37  76 CALM      30.13R
BRUNSWICK      PTCLDY    43  39  87 CALM      30.12R
SAINT SIMONS   PTCLDY    46  39  76 N5        30.11R
6HR MIN TEMP:  45; 6HR MAX TEMP:  49;


$$

SCZ027-028-034-036>038-045-046-048>050-GAZ119-141-191300-
...LAKE AND SUPPLEMENTAL COASTAL OBSERVATIONS...

STATION/POSITION TIME  TEMP    WIND        PRES    WAVE   SWELL
                       AIR SEA DIR/SP/G            HT/PER HT/PER/DIR
                 (UTC) (F)     (DEG/KT/KT) (MB)    (FT/S) (FT/S/D)
UPR LAKE MARION  NOT AVBL
WINYAH BAY       1100   41     330/  2     1018.0S
LAKE MURRAY      1100   41      CALM  /  2 1018.6R
ACE BASIN NERRS  1100   42        CALM     1018.0S
FORT PULASKI     1200   49 57  300/  5/  8 1020.2R
SAPELO ISLAND    1100   45        CALM     1019.0S

$$

ANZ835-935-AMZ111-154-330-350-352-354-370-450-454-472-191300-
...C-MAN AND BUOY OBSERVATIONS...

STATION/POSITION TIME  TEMP    WIND        PRES    WAVE   SWELL
                       AIR SEA DIR/SP/G            HT/PER HT/PER/DIR
                 (UTC) (F)     (DEG/KT/KT) (MB)    (FT/S) (FT/S/D)
BUOY 41004       1200   60 72  330/  6/  8 1018.8R   2/10   2/10
BUOY 41008       1200   56 57  340/  6/  6 1019.3R   1/11
FOLLY BEACH CMAN 1100   51     290/  2/  2 1019.1R
CAPERS NEARSHORE 1100   52      10/  2/  4   N/A
FRIPP NEARSHORE  NOT AVBL


STATION/POSITION TIME  TEMP    WIND        PRES    WAVE   SWELL
                       AIR SEA DIR/SP/G            HT/PER HT/PER/DIR
                 (UTC) (F)     (DEG/KT/KT) (MB)    (FT/S) (FT/S/D)
5E ST. MARYS GA  1200      60                N/A     1/11
FRYING PAN BUOY  1200   56 65  360/  8/ 10 1019.8R   2/10   2/110/10
BUOY 41025       1200   47                 1019.6R   2/ 6
CAPE LOOKOUT NC  1100   49     330/ 10/ 12 1019.0R
BUOY 41002       1133   69 72  310/ 10/ 12 1017.7R   3/ 9   3/ 40/ 9
BUOY 41010       1200   69 76  310/  4/  6 1018.5R   2/10   2/ 70/10
ST AUGUSTINE FL  1200   50     320/  5/  5 1020.2R


$$



USA.gov is the U.S. government's official web portal to all federal, state and local government web resources and services.